If you wish to contribute or participate in the discussions about articles you are invited to join SKYbrary as a registered user

 Actions

Teniente Vidal Airport

From SKYbrary Wiki

SCCY
Airport
ICAO: SCCY – IATA: GXQ
Summary
Name Teniente Vidal Airport
Region South America and Caribbean
Territory Chile CL.gif
Location Coyhaique, Aisen del General Carlos Ibanez del Campo
Serving Coyhaique
Elevation 310.896 m
1,020 ft
1,020 ft310.896 m
Type medium airport
Coordinates 45° 35' 39.16" S, 72° 6' 22.08" W
Runways
Designator Length Width Surface ROPS
3/21 1546 m5,072.178 ft
30 m98.425 ft
ASP /


METAR
Observation SCCY 121100Z AUTO 07004KT 010V090 9999 BKN049 08/03 Q1018
Station Coyhaique
Date/Time 12 December 2019 11:00:00
Wind direction 70°
Wind speed 04 kts
Lowest cloud amount broken clouds
Temperature 8°C
Dew point 3°C
Humidity 70%
QNH 1018 hPa
Weather condition n/a

Airport 4 km2.16 nm
4,000 m
13,123.36 ft
southwest of Coyhaique, Chile.

Climatology

Temperate oceanic climate (Köppen climate classification Cfb)

Maps

Terrain

Loading map...

Airport Layout

Loading map...


Accidents & Serious Incidents at or in vicinity of SCCY

None on SKYbrary